Location: Unspecified
(0.0000°N, 0.0000°E)
Time: 04:53:08
(UTC+02:00)

H-2A R/B - Visible Passes

Search period start: 03 August 2015 00:00
Search period end: 13 August 2015 00:00
Orbit: 269 x 33341 km, 28.4° (Epoch: 30 July)

Date Brightness Start Highest point End Pass type
(mag) Time Alt. Az. Time Alt. Az. Time Alt. Az.
03 Aug 6.8 16:42:56 10° WNW 16:58:55 76° SSW 01:52:02 10° E visible
04 Aug 5.2 22:54:54 10° WSW 07:16:35 21° NW 07:22:03 10° N visible
05 Aug 6.7 17:33:11 10° W 18:00:24 65° SSW 02:43:22 10° ENE visible
06 Aug 5.1 12:54:33 10° N 12:58:52 21° NE 20:57:02 12° ESE visible
07 Aug 6.1 18:24:17 10° W 19:29:42 58° S 03:33:29 10° ENE visible
08 Aug 5.1 13:42:02 10° NNW 13:47:54 44° NE 21:47:13 25° ESE visible
09 Aug 5.8 19:16:45 10° W 04:08:49 79° NW 04:22:41 10° NE visible
10 Aug 5.5 14:30:13 10° NW 14:37:40 72° NE 22:37:09 39° ESE visible
11 Aug 5.4 20:11:30 10° WSW 05:00:49 58° NW 05:11:12 10° NE visible
